DW4524 Weather Reports


time (UTC)temp
C
wind
direction
speed
KPH
gust
KPH
rain 1hr
cm
rain 24hr
cm
rain mn
cm
humidity
%
barometer
mb
20260505140401 3 223 0.0 3.2 0.00 0.15 0.00 87 1012.3
20260505124902 5 110 0.0 0.0 0.00 0.15 0.00 85 1011.2
20260505123902 5 261 0.0 0.0 0.00 0.15 0.00 85 1011.0
20260505123401 5 168 0.0 0.0 0.00 0.15 0.00 85 1011.0
20260505122902 5 255 0.0 0.0 0.00 0.15 0.00 84 1010.8
20260505122402 5 252 0.0 0.0 0.00 0.15 0.00 84 1010.6
20260505121902 5 246 0.0 0.0 0.00 0.15 0.00 83 1010.6
20260505121402 5 91 0.0 0.0 0.00 0.15 0.00 83 1010.5
20260505120902 5 274 0.0 0.0 0.00 0.15 0.00 82 1010.5
20260505120402 5 274 0.0 1.6 0.00 0.15 0.00 82 1010.6
20260505115901 5 66 0.0 3.2 0.00 0.15 0.00 81 1010.5
20260505115402 5 263 0.0 1.6 0.00 0.15 0.00 81 1010.6
20260505114902 5 210 0.0 3.2 0.00 0.15 0.00 82 1010.7
20260505113901 5 94 0.0 0.0 0.00 0.15 0.00 83 1010.6
20260505113402 5 224 0.0 0.0 0.00 0.15 0.00 83 1010.5
20260505112901 5 226 0.0 0.0 0.00 0.15 0.00 83 1010.4
20260505112402 5 222 0.0 0.0 0.00 0.15 0.00 83 1010.4
20260505111901 5 231 0.0 0.0 0.00 0.15 0.00 83 1010.3
20260505111402 5 1 0.0 0.0 0.00 0.15 0.00 84 1010.4
20260505110902 5 248 0.0 0.0 0.00 0.15 0.00 86 1010.6
20260505110402 5 248 0.0 0.0 0.00 0.15 0.00 87 1010.5
20260505101402 5 90 0.0 0.0 0.00 0.15 0.00 90 1010.5
20260505100902 5 90 0.0 0.0 0.00 0.15 0.00 89 1010.4
20260505100402 5 90 0.0 0.0 0.00 0.15 0.00 89 1010.4
20260505095902 5 90 0.0 0.0 0.00 0.15 0.00 89 1010.4
20260505095403 5 90 0.0 0.0 0.00 0.15 0.00 89 1010.3
20260505094903 5 90 0.0 0.0 0.00 0.15 0.00 89 1010.4
20260505094403 5 90 0.0 0.0 0.00 0.15 0.00 89 1010.3
20260505093903 5 90 0.0 0.0 0.00 0.15 0.00 89 1010.3
20260505093403 5 90 0.0 0.0 0.00 0.15 0.00 89 1010.0
20260505092402 5 90 0.0 0.0 0.00 0.15 0.00 88 1010.1
20260505091902 5 90 0.0 0.0 0.00 0.15 0.00 88 1010.2
20260505090902 5 90 0.0 3.2 0.00 0.15 0.00 89 1010.3
20260505090403 5 92 0.0 4.8 0.00 0.15 0.00 90 1010.2
20260505085902 5 95 0.0 0.0 0.00 0.15 0.00 90 1010.3
20260505085402 5 90 0.0 0.0 0.00 0.15 0.00 91 1010.5
20260505084902 5 100 0.0 1.6 0.00 0.15 0.00 91 1010.8
20260505084402 5 254 0.0 1.6 0.00 0.15 0.00 91 1010.9
20260505083903 5 254 0.0 0.0 0.00 0.15 0.00 92 1011.0
20260505083402 5 255 0.0 0.0 0.00 0.15 0.00 92 1011.1
20260505082902 5 254 0.0 0.0 0.00 0.15 0.00 92 1010.9
20260505081902 5 255 0.0 0.0 0.00 0.15 0.00 92 1011.1
20260505081402 6 254 0.0 0.0 0.00 0.15 0.00 92 1011.1
20260505080903 6 254 0.0 0.0 0.00 0.15 0.00 92 1011.1
20260505080402 6 255 0.0 1.6 0.00 0.15 0.00 92 1011.1
20260505075903 6 254 0.0 1.6 0.00 0.15 0.00 92 1011.1
20260505075402 6 277 1.6 3.2 0.00 0.15 0.00 92 1011.2
20260505074902 6 241 0.0 1.6 0.00 0.15 0.00 92 1011.2
20260505074403 6 270 0.0 1.6 0.00 0.15 0.00 92 1011.2
20260505073903 6 251 0.0 1.6 0.00 0.15 0.00 91 1011.3
20260505072903 6 94 0.0 0.0 0.00 0.15 0.00 91 1011.4
20260505072402 6 94 0.0 0.0 0.00 0.15 0.00 91 1011.4
20260505071402 6 94 0.0 1.6 0.00 0.15 0.00 91 1011.3
20260505070902 6 307 0.0 1.6 0.00 0.15 0.00 91 1011.4
20260505070402 6 299 0.0 1.6 0.00 0.15 0.00 91 1011.5
20260505065903 6 304 0.0 0.0 0.08 0.15 0.00 91 1011.6
20260505065402 6 304 1.6 3.2 0.08 0.15 0.00 90 1011.5
20260505064902 6 319 0.0 3.2 0.08 0.15 0.00 90 1011.4
20260505064403 6 20 0.0 3.2 0.10 0.15 0.00 90 1011.4
20260505063903 6 316 0.0 3.2 0.10 0.15 0.00 90 1011.5
20260505063403 6 307 0.0 0.0 0.10 0.15 0.00 90 1011.6
20260505062903 6 274 0.0 0.0 0.10 0.15 0.00 89 1011.7
20260505062402 6 336 0.0 0.0 0.10 0.15 0.00 89 1011.4
20260505061902 6 64 0.0 0.0 0.10 0.15 0.00 88 1011.4
20260505061402 6 91 0.0 1.6 0.10 0.15 0.00 88 1011.4
20260505060903 6 95 0.0 3.2 0.10 0.15 0.00 87 1011.5
20260505060403 6 297 0.0 1.6 0.03 0.15 0.08 87 1011.8
20260505055402 6 341 0.0 0.0 0.03 0.08 0.08 85 1011.9
20260505054902 6 78 0.0 0.0 0.03 0.08 0.08 84 1011.9
20260505054403 6 15 0.0 0.0 0.00 0.05 0.05 83 1011.8
20260505053903 7 311 0.0 0.0 0.00 0.05 0.05 82 1012.0
20260505053403 7 318 0.0 3.2 0.00 0.05 0.05 80 1011.9
20260505052903 7 93 4.8 9.7 0.00 0.05 0.05 78 1011.8
20260505052403 7 75 0.0 0.0 0.00 0.05 0.05 78 1012.0
20260505051903 7 290 0.0 0.0 0.00 0.05 0.05 77 1012.0
20260505051403 7 289 0.0 3.2 0.00 0.05 0.05 76 1011.9
20260505050903 7 64 0.0 1.6 0.00 0.05 0.05 76 1012.0
20260505050402 7 73 0.0 0.0 0.00 0.05 0.05 76 1011.9
20260505041403 7 312 1.6 8.0 0.00 0.05 0.05 77 1010.9
20260505040903 7 18 3.2 14.5 0.00 0.05 0.05 77 1010.9
20260505040402 7 47 3.2 12.9 0.00 0.05 0.05 77 1010.9
20260505035903 7 285 3.2 8.0 0.00 0.05 0.05 77 1010.9
20260505035403 7 41 3.2 11.3 0.00 0.05 0.05 77 1010.7
20260505034902 7 63 1.6 9.7 0.00 0.05 0.05 77 1010.7
20260505034403 7 15 3.2 8.0 0.00 0.05 0.05 76 1010.9
20260505033903 7 67 3.2 9.7 0.00 0.05 0.05 76 1011.1
20260505033403 7 322 1.6 14.5 0.00 0.05 0.05 77 1011.0
20260505032903 7 329 4.8 11.3 0.00 0.05 0.05 77 1011.0
20260505032402 7 307 3.2 4.8 0.00 0.05 0.05 77 1011.0
20260505031403 7 45 3.2 11.3 0.00 0.05 0.05 76 1010.6
20260505030902 7 12 1.6 9.7 0.00 0.05 0.05 76 1010.5
20260505030403 7 53 3.2 4.8 0.00 0.05 0.05 76 1010.5
20260505025403 7 42 3.2 4.8 0.00 0.05 0.05 76 1010.7
20260505024903 7 45 3.2 12.9 0.00 0.05 0.05 77 1010.8
20260505024403 7 15 3.2 8.0 0.00 0.05 0.05 78 1010.8
20260505023902 7 345 0.0 0.0 0.03 0.05 0.05 78 1010.8
20260505023403 7 23 0.0 3.2 0.03 0.05 0.05 78 1010.7
20260505022903 7 29 1.6 3.2 0.05 0.05 0.05 77 1010.7
20260505022403 7 2 1.6 4.8 0.05 0.05 0.05 78 1010.8
20260505021903 7 20 0.0 3.2 0.05 0.05 0.05 77 1010.7
20260505021403 7 80 1.6 4.8 0.05 0.05 0.05 77 1010.7
20260505020903 7 92 0.0 4.8 0.05 0.05 0.05 77 1010.9
20260505020403 7 5 0.0 4.8 0.05 0.05 0.05 78 1011.1
20260505015903 7 75 1.6 4.8 0.05 0.05 0.05 77 1011.0
20260505015403 7 72 3.2 9.7 0.05 0.05 0.05 76 1010.9
20260505014903 8 74 4.8 14.5 0.05 0.05 0.05 74 1011.0
20260505014404 8 6 4.8 14.5 0.05 0.05 0.05 68 1010.7
20260505013403 10 80 3.2 8.0 0.03 0.03 0.03 58 1010.7
20260505012903 10 77 11.3 27.4 0.00 0.00 0.00 57 1010.7
20260505012403 10 88 0.0 9.7 0.00 0.00 0.00 57 1010.7
20260505011903 11 357 3.2 12.9 0.00 0.00 0.00 57 1010.7
20260505011403 11 14 1.6 9.7 0.00 0.00 0.00 52 1010.8
20260505010904 11 50 4.8 12.9 0.00 0.00 0.00 50 1010.5
20260505010403 12 291 3.2 9.7 0.00 0.00 0.00 47 1010.2
20260505005903 12 319 3.2 14.5 0.00 0.00 0.00 45 1010.1
20260505005403 12 290 3.2 9.7 0.00 0.00 0.00 44 1009.9
20260505004903 12 263 1.6 8.0 0.00 0.00 0.00 43 1009.7
20260505004403 12 304 3.2 12.9 0.00 0.00 0.00 43 1009.3
20260505003903 12 51 3.2 9.7 0.00 0.00 0.00 42 1009.3
20260505003404 12 70 4.8 16.1 0.00 0.00 0.00 41 1009.1
20260505002903 13 29 6.4 14.5 0.00 0.00 0.00 39 1009.0
20260505002403 13 7 3.2 14.5 0.00 0.00 0.00 39 1009.0
20260505001903 13 27 3.2 14.5 0.00 0.00 0.00 38 1008.7
20260505001404 13 52 8.0 19.3 0.00 0.00 0.00 38 1008.7
20260505000904 14 57 4.8 14.5 0.00 0.00 0.00 37 1008.8
20260505000405 14 60 4.8 11.3 0.00 0.00 0.00 36 1008.5
20260504235903 15 58 8.0 16.1 0.00 0.00 0.00 35 1008.7
20260504235403 15 73 9.7 19.3 0.00 0.00 0.00 34 1008.6
20260504234904 15 14 4.8 11.3 0.00 0.00 0.00 34 1008.6
20260504234403 15 76 4.8 16.1 0.00 0.00 0.00 35 1008.4
20260504233904 15 48 4.8 16.1 0.00 0.00 0.00 34 1008.5
20260504233403 15 40 4.8 19.3 0.00 0.00 0.00 34 1008.6
20260504232904 16 57 6.4 14.5 0.00 0.00 0.00 34 1008.7
20260504232403 16 40 4.8 12.9 0.00 0.00 0.00 34 1008.8
20260504231904 16 314 1.6 8.0 0.00 0.00 0.00 33 1008.6
20260504231403 16 329 3.2 9.7 0.00 0.00 0.00 33 1008.7
20260504230903 16 304 3.2 9.7 0.00 0.00 0.00 34 1008.6
20260504230404 15 299 1.6 8.0 0.00 0.00 0.00 34 1008.6
20260504225903 15 260 0.0 1.6 0.00 0.00 0.00 34 1008.7
20260504225404 15 306 1.6 3.2 0.00 0.00 0.00 35 1008.6
20260504224903 15 87 1.6 3.2 0.00 0.00 0.00 35 1008.5
20260504224403 15 68 1.6 4.8 0.00 0.00 0.00 34 1008.7
20260504222903 16 220 6.4 11.3 0.00 0.00 0.00 33 1008.6
20260504222403 16 226 4.8 12.9 0.00 0.00 0.00 33 1008.6
20260504221403 16 201 4.8 12.9 0.00 0.00 0.00 32 1008.5
20260504220904 16 0 3.2 12.9 0.00 0.00 0.00 32 1008.5
20260504215404 16 72 4.8 16.1 0.00 0.00 0.00 29 1008.3
20260504214904 16 87 4.8 12.9 0.00 0.00 0.00 31 1008.3
20260504214404 16 300 3.2 9.7 0.00 0.00 0.00 32 1008.4
20260504212903 17 340 4.8 11.3 0.00 0.00 0.00 26 1008.2
20260504212404 17 82 1.6 12.9 0.00 0.00 0.00 25 1008.1
20260504211904 17 300 3.2 12.9 0.00 0.00 0.00 25 1008.1
20260504211404 17 306 4.8 14.5 0.00 0.00 0.00 24 1008.0
20260504210903 18 5 3.2 11.3 0.00 0.00 0.00 24 1007.9
20260504210404 18 330 3.2 14.5 0.00 0.00 0.00 24 1007.9
20260504205404 18 287 4.8 14.5 0.00 0.00 0.00 23 1008.0
20260504204904 18 73 1.6 9.7 0.00 0.00 0.00 23 1008.1
20260504204404 18 173 1.6 4.8 0.00 0.00 0.00 22 1008.1
20260504203904 18 199 3.2 9.7 0.00 0.00 0.00 22 1008.3
20260504202401 18 200 3.2 9.7 0.00 0.00 0.00 23 1008.4
20260504201901 18 229 8.0 12.9 0.00 0.00 0.00 22 1008.5
20260504201400 18 218 6.4 14.5 0.00 0.00 0.00 25 1008.5
20260504200901 18 210 6.4 14.5 0.00 0.00 0.00 23 1008.6
20260504200400 18 241 12.9 22.5 0.00 0.00 0.00 24 1008.7
20260504195901 18 218 9.7 19.3 0.00 0.00 0.00 23 1008.7
20260504194901 18 222 9.7 20.9 0.00 0.00 0.00 22 1008.7
20260504194401 18 215 11.3 19.3 0.00 0.00 0.00 21 1008.7
20260504193401 18 253 0.0 9.7 0.00 0.00 0.00 19 1008.7
20260504192901 18 203 1.6 11.3 0.00 0.00 0.00 21 1008.7
20260504192401 18 213 4.8 14.5 0.00 0.00 0.00 18 1008.7
20260504191901 18 294 0.0 3.2 0.00 0.00 0.00 17 1008.7
20260504191401 19 236 1.6 9.7 0.00 0.00 0.00 17 1008.8
20260504190901 20 264 1.6 12.9 0.00 0.00 0.00 16 1008.9
20260504190401 20 236 8.0 12.9 0.00 0.00 0.00 18 1009.0
20260504185901 20 239 4.8 14.5 0.00 0.00 0.00 18 1008.9
20260504185402 20 215 3.2 16.1 0.00 0.00 0.00 19 1009.0
20260504184901 20 209 9.7 19.3 0.00 0.00 0.00 18 1009.1
20260504184401 20 211 4.8 11.3 0.00 0.00 0.00 18 1009.0
20260504183901 20 84 0.0 4.8 0.00 0.00 0.00 19 1009.2
20260504183401 20 223 1.6 8.0 0.00 0.00 0.00 18 1009.4
20260504182901 20 223 0.0 4.8 0.00 0.00 0.00 19 1009.6
20260504181901 19 225 3.2 12.9 0.00 0.00 0.00 20 1009.7
20260504181401 19 212 8.0 16.1 0.00 0.00 0.00 18 1009.7
20260504180401 18 196 0.0 3.2 0.00 0.00 0.00 21 1009.7
20260504175902 18 230 6.4 14.5 0.00 0.00 0.00 21 1009.9
20260504175401 18 222 6.4 11.3 0.00 0.00 0.00 22 1010.0
20260504174401 17 215 8.0 16.1 0.00 0.00 0.00 22 1010.2
20260504173901 17 208 6.4 19.3 0.00 0.00 0.00 24 1010.4
20260504173402 17 228 11.3 19.3 0.00 0.00 0.00 25 1010.4
20260504172901 17 207 8.0 14.5 0.00 0.00 0.00 24 1010.4
20260504172401 17 207 4.8 16.1 0.00 0.00 0.00 25 1010.5
20260504171902 17 216 8.0 16.1 0.00 0.00 0.00 24 1010.5
20260504171401 17 214 9.7 19.3 0.00 0.00 0.00 25 1010.5
20260504170401 17 229 9.7 19.3 0.00 0.00 0.00 27 1010.7
20260504160401 15 280 4.8 19.3 0.00 0.00 0.00 33 1011.2
20260504150901 13 228 6.4 16.1 0.00 0.00 0.00 34 1011.5
20260504150402 13 304 3.2 14.5 0.00 0.00 0.00 35 1011.5